RH
61 68 66 66 61 53 60 73 76 79 81 83 89 87 84 82 84 88 84 84 85 89
60 62 60 66 67 52 53 57 65 77 78 81 75 64 64 65 72 73 76 80 80 75
62 62 66 62 70 59 53 53 60 76 80 77 72 65 67 73 71 73 75 78 84 75
73 65 71 62 72 59 60 57 65 78 79 80 69 64 63 69 70 74 75 85 96 77
75 87 92 82 81 64 66 64 75 73 72 68 68 66 65 68 72 68 81 75 75 91
86 91 88 83 75 64 67 73 73 69 64 65 65 67 68 69 70 65 85 70 90 82
59 67 73 70 64 67 75 71 68 63 65 67 68 64 66 62 73 66 78 74 78 85
51 61 59 55 62 69 69 69 63 65 65 64 59 56 62 64 67 70 79 75 84 86
52 55 57 62 69 72 71 62 61 66 56 49 55 59 60 68 69 74 76 81 77 79
51 55 61 66 70 66 65 61 51 47 48 53 55 60 65 69 70 72 75 72 65 54
55 67 68 65 60 51 44 42 43 48 51 53 58 61 65 70 71 67 59 47 47 48
62 60 56 50 46 41 39 41 44 47 49 53 57 63 64 63 56 49 47 49 48 45
51 48 45 42 37 35 38 42 45 48 51 54 58 59 55 50 48 49 50 50 43 38
44 44 40 37 37 40 44 48 50 50 50 52 53 52 52 52 53 53 49 44 41 37